Location: Unspecified
(0.0000°N, 0.0000°E)
Time: 15:31:52
(UTC+00:00)

Hubble Space Telescope - Pass Details

Date: 12 September 2024
Orbit: 506 x 509 km, 28.5° (Epoch: 15 September)

Event Time Altitude Azimuth Distance (km) Brightness Sun altitude
Rises 19:50:10 0° 307° (NW) 2,589 5.1 -28.5°
Reaches altitude 10° 19:52:25 10° 311° (NW) 1,706 3.9 -29.0°
Enters shadow 19:53:43 20° 317° (NW) 1,222 3.0 -29.4°
